{"data":{"norad_id":64221,"intl_designator":"2025-117U","name":"STARLINK-34326","alt_names":[],"object_type":"PAYLOAD","status":"ACTIVE","operator":null,"country":"US","launch_date":"2025-05-31","launch_site_code":"AFWTR","launch_vehicle":null,"mission":null,"orbit_class":"UNKNOWN","rcs_meters":null,"size_class":null,"mass_kg":null,"dimensions":null,"purposes":["comms"],"wikipedia_slug":null,"has_3d_model":false,"image_url":null,"decayed_at":null,"tle_current":{"epoch":"2026-05-25T02:17:10.704192Z","epoch_age_seconds":60709,"freshness":"FRESH","line1":"1 64221U 25117U   26145.09526278  .00006112  00000+0  21828-3 0  9991","line2":"2 64221  53.1599  44.7119 0001183  96.0266 264.0870 15.30202128 56256","mean_motion":15.30202128,"eccentricity":0.0001183,"inclination_deg":53.1599,"raan_deg":44.7119,"arg_perigee_deg":96.0266,"mean_anomaly_deg":264.087,"bstar":0.00021828,"rev_number":5625,"period_min":94.105214837343,"perigee_km":474.39796480411,"apogee_km":476.01946640042,"semimajor_km":6853.3457156023,"source":"CELESTRAK","updated_at":"2026-05-25T13:38:20.320996Z"}}}